Regional Weather Roundup
Issued by NWS

Home | Current Version | Previous Version | Graphics & Text | Print | Product List | Glossary On
Versions: 1 2 3 4 5 6 7 8 9 10 11 12 13 14 15 16 17 18 19 20 21 22 23 24 25 26 27 28 29 30 31 32 33 34 35 36 37 38 39 40 41 42 43 44 45 46 47 48 49 50
000
ASUS43 KLMK 150702
RWRKY
KENTUCKY REGIONAL WEATHER ROUNDUP
NATIONAL WEATHER SERVICE LOUISVILLE KY
200 AM EST FRI DEC 15 2017

NOTE "FAIR" INDICATES FEW OR NO CLOUDS BELOW 12,000 FEET
WITH NO SIGNIFICANT WEATHER AND/OR OBSTRUCTIONS TO VISIBILITY.

KYZ001>023-026-027-061>063-070>075-150800-
WESTERN AND SOUTH CENTRAL KENTUCKY

CITY           SKY/WX    TMP DP  RH WIND       PRES   REMARKS
PADUCAH        CLOUDY    32  22  66 SW3       30.11F
HENDERSON      CLOUDY    31  23  72 W5        30.10S WCI  26
OWENSBORO      CLOUDY    31  23  72 W5        30.10S WCI  26
HOPKINSVILLE   CLOUDY    31  22  68 CALM      30.08F
BOWLING GREEN  CLOUDY    32  22  66 NW5       30.08F WCI  27
GLASGOW        NOT AVBL
$$

KYZ024-025-028>034-038-045-046-053-150800-
NORTH CENTRAL KENTUCKY

CITY           SKY/WX    TMP DP  RH WIND       PRES   REMARKS
LOUISVILLE/SDF CLOUDY    28  18  66 E3        30.07F
LOUISVILLE/LOU CLOUDY    27  20  75 CALM      30.08F
FORT KNOX      CLOUDY    28  18  67 CALM      30.04F
$$

KYZ035>037-039>044-047>052-055>060-089>105-150800-
NORTHEAST KENTUCKY

CITY           SKY/WX    TMP DP  RH WIND       PRES   REMARKS
LEXINGTON      CLOUDY    26  17  68 CALM      30.04F
COVINGTON      CLOUDY    24  17  74 CALM      30.04F
FRANKFORT      CLOUDY    27  16  63 CALM      30.04F
$$

KYZ054-064>069-076>088-106>120-150800-
SOUTHEAST KENTUCKY

CITY           SKY/WX    TMP DP  RH WIND       PRES   REMARKS
JACKSON        CLOUDY    29  21  72 CALM      30.00F
LONDON         CLOUDY    31  22  69 CALM      30.01F
SOMERSET       NOT AVBL
MIDDLESBORO    CLOUDY    28  25  87 CALM      30.02S
MONTICELLO     CLOUDY    32  25  75 VRB7      30.05F WCI  26
$$





USA.gov is the U.S. government's official web portal to all federal, state and local government web resources and services.